KC8JWT Weather Reports


Display with metric or nautical units.
time (UTC)temp
F
wind
direction
speed
MPH
gust
MPH
rain 1hr
in
rain 24hr
in
rain mn
in
humidity
%
barometer
mb
20260505062812 66 139 7.0 9.0 0.00 0.00 0.00 66 1008.7
20260505062309 66 126 2.0 2.0 0.00 0.00 0.00 66 1008.5
20260505061806 66 171 3.0 3.0 0.00 0.00 0.00 66 1008.4
20260505061304 66 146 2.0 2.0 0.00 0.00 0.00 66 1008.2
20260505060801 66 201 6.0 8.0 0.00 0.00 0.00 66 1008.6
20260505060258 66 185 1.0 2.0 0.00 0.00 0.00 66 1008.6
20260505055754 67 145 1.0 2.0 0.00 0.00 0.00 66 1008.5
20260505055250 66 140 3.0 3.0 0.00 0.00 0.00 67 1008.5
20260505054747 66 206 4.0 5.0 0.00 0.00 0.00 67 1008.6
20260505054245 66 224 4.0 5.0 0.00 0.00 0.00 67 1008.5
20260505053743 66 229 6.0 9.0 0.00 0.00 0.00 68 1008.5
20260505053239 66 149 2.0 2.0 0.00 0.00 0.00 69 1008.7
20260505052737 65 197 2.0 2.0 0.00 0.00 0.00 69 1008.7
20260505052233 65 150 1.0 1.0 0.00 0.00 0.00 70 1008.5
20260505051730 65 160 3.0 3.0 0.00 0.00 0.00 70 1008.8
20260505051229 65 170 1.0 2.0 0.00 0.00 0.00 70 1008.7
20260505050726 65 156 0.0 1.0 0.00 0.00 0.00 70 1008.6
20260505050224 65 154 1.0 1.0 0.00 0.00 0.00 70 1008.6
20260505041654 64 171 0.0 1.0 0.00 0.00 0.00 75 1008.4
20260505041151 62 151 1.0 2.0 0.00 0.00 0.00 78 1008.4
20260505040648 61 149 0.0 1.0 0.00 0.00 0.00 82 1008.5
20260505040146 60 150 0.0 0.0 0.00 0.00 0.00 83 1008.2
20260505035642 60 139 1.0 1.0 0.00 0.00 0.00 84 1008.2
20260505035138 60 140 0.0 0.0 0.00 0.00 0.00 85 1008.0
20260505034635 60 140 0.0 0.0 0.00 0.00 0.00 85 1008.2
20260505034132 60 140 0.0 0.0 0.00 0.00 0.00 84 1008.2
20260505033628 60 140 0.0 0.0 0.00 0.00 0.00 84 1008.1
20260505033127 60 140 0.0 0.0 0.00 0.00 0.00 85 1008.2
20260505032625 60 140 0.0 0.0 0.00 0.00 0.00 84 1008.1
20260505032121 60 140 0.0 0.0 0.00 0.00 0.00 84 1008.1
20260505031618 60 140 0.0 0.0 0.00 0.00 0.00 84 1008.2
20260505031114 60 140 0.0 0.0 0.00 0.00 0.00 83 1008.1
20260505030611 60 140 0.0 0.0 0.00 0.00 0.00 83 1008.1
20260505030108 60 140 1.0 1.0 0.00 0.00 0.00 83 1008.0
20260505025603 60 140 0.0 0.0 0.00 0.00 0.00 83 1008.1
20260505025102 60 140 0.0 0.0 0.00 0.00 0.00 82 1008.3
20260505024559 61 140 0.0 0.0 0.00 0.00 0.00 81 1008.1
20260505024056 62 140 0.0 0.0 0.00 0.00 0.00 79 1008.2
20260505023553 62 140 0.0 0.0 0.00 0.00 0.00 78 1007.9
20260505023051 63 141 0.0 0.0 0.00 0.00 0.00 76 1008.0
20260505022548 63 141 0.0 0.0 0.00 0.00 0.00 76 1008.1
20260505022040 63 140 0.0 0.0 0.00 0.00 0.00 76 1007.9
20260505021536 63 140 0.0 0.0 0.00 0.00 0.00 76 1008.2
20260505021033 64 140 0.0 0.0 0.00 0.00 0.00 75 1007.7
20260505020532 64 140 0.0 0.0 0.00 0.00 0.00 75 1007.9
20260505020030 63 135 0.0 0.0 0.00 0.00 0.00 75 1007.9
20260505015527 63 135 0.0 0.0 0.00 0.00 0.00 75 1008.2
20260505015023 63 135 0.0 0.0 0.00 0.00 0.00 76 1008.0
20260505014520 63 134 0.0 0.0 0.00 0.00 0.00 77 1007.8
20260505014018 63 134 0.0 0.0 0.00 0.00 0.00 76 1007.8
20260505013514 64 134 0.0 0.0 0.00 0.00 0.00 75 1007.8
20260505013012 64 134 0.0 0.0 0.00 0.00 0.00 75 1007.8
20260505012510 64 134 0.0 0.0 0.00 0.00 0.00 74 1007.5
20260505012006 64 134 0.0 0.0 0.00 0.00 0.00 73 1007.8
20260505011502 65 135 0.0 0.0 0.00 0.00 0.00 73 1007.7
20260505010959 65 135 0.0 0.0 0.00 0.00 0.00 72 1007.6
20260505010455 65 135 0.0 0.0 0.00 0.00 0.00 72 1007.4
20260505005951 66 135 0.0 0.0 0.00 0.00 0.00 71 1007.8
20260505005448 66 135 0.0 0.0 0.00 0.00 0.00 70 1007.6
20260505004946 67 135 0.0 0.0 0.00 0.00 0.00 69 1007.7
20260505004442 67 134 0.0 1.0 0.00 0.00 0.00 69 1007.7
20260505003939 68 135 0.0 0.0 0.00 0.00 0.00 68 1007.4
20260505003436 68 135 0.0 1.0 0.00 0.00 0.00 68 1007.6
20260505002932 67 139 0.0 0.0 0.00 0.00 0.00 68 1007.7
20260505002429 68 139 1.0 1.0 0.00 0.00 0.00 67 1007.7
20260505001927 68 137 0.0 0.0 0.00 0.00 0.00 67 1007.8
20260505001425 69 137 0.0 0.0 0.00 0.00 0.00 66 1008.0
20260505000921 69 137 0.0 1.0 0.00 0.00 0.00 66 1007.8
20260505000420 69 137 0.0 0.0 0.00 0.00 0.00 65 1007.7
20260504235916 70 137 0.0 0.0 0.00 0.00 0.00 64 1007.8
20260504235413 70 137 0.0 0.0 0.00 0.00 0.00 63 1008.1
20260504234909 71 137 0.0 0.0 0.00 0.00 0.00 63 1008.1
20260504234407 72 140 1.0 2.0 0.00 0.00 0.00 62 1008.3
20260504233903 73 137 0.0 0.0 0.00 0.00 0.00 60 1007.9
20260504233359 74 152 0.0 1.0 0.00 0.00 0.00 59 1007.9
20260504232856 75 160 3.0 3.0 0.00 0.00 0.00 58 1008.1
20260504232353 75 156 0.0 1.0 0.00 0.00 0.00 57 1008.0
20260504231850 75 158 1.0 2.0 0.00 0.00 0.00 57 1008.0
20260504231346 75 147 1.0 2.0 0.00 0.00 0.00 58 1008.0
20260504230843 75 180 1.0 2.0 0.00 0.00 0.00 57 1008.3
20260504230340 75 207 1.0 2.0 0.00 0.00 0.00 58 1008.2
20260504225839 75 211 4.0 7.0 0.00 0.00 0.00 57 1008.5
20260504225335 75 223 3.0 3.0 0.00 0.00 0.00 57 1008.6
20260504224833 75 227 5.0 6.0 0.00 0.00 0.00 57 1008.4
20260504224329 75 253 3.0 5.0 0.00 0.00 0.00 58 1008.7
20260504223826 75 155 1.0 1.0 0.00 0.00 0.00 59 1008.7
20260504223321 75 79 3.0 3.0 0.00 0.00 0.00 58 1008.5
20260504222818 74 216 4.0 5.0 0.00 0.00 0.00 58 1008.7
20260504222315 74 199 2.0 2.0 0.00 0.00 0.00 60 1008.6
20260504221814 73 156 2.0 3.0 0.00 0.00 0.00 60 1008.6
20260504221310 72 179 2.0 3.0 0.00 0.00 0.00 61 1008.8
20260504220807 72 218 3.0 6.0 0.00 0.00 0.00 61 1009.1
20260504220304 73 159 3.0 5.0 0.00 0.00 0.00 59 1009.0
20260504215802 73 157 3.0 3.0 0.00 0.00 0.00 59 1008.7
20260504215258 73 169 3.0 3.0 0.00 0.00 0.00 59 1008.8
20260504214754 73 237 3.0 5.0 0.00 0.00 0.00 60 1008.9
20260504214250 73 176 3.0 3.0 0.00 0.00 0.00 59 1009.2
20260504213747 73 131 3.0 5.0 0.00 0.00 0.00 60 1008.6
20260504213243 73 195 5.0 6.0 0.00 0.00 0.00 58 1008.6
20260504212741 75 224 5.0 8.0 0.00 0.00 0.00 58 1008.9
20260504212237 74 202 2.0 2.0 0.00 0.00 0.00 59 1008.9
20260504211735 74 229 6.0 8.0 0.00 0.00 0.00 58 1008.8
20260504211230 73 146 1.0 2.0 0.00 0.00 0.00 60 1008.6
20260504210729 73 170 3.0 3.0 0.00 0.00 0.00 59 1008.7
20260504210225 74 231 3.0 5.0 0.00 0.00 0.00 59 1008.9
20260504205722 74 208 3.0 5.0 0.00 0.00 0.00 59 1008.7
20260504205220 74 176 2.0 3.0 0.00 0.00 0.00 59 1009.0
20260504204718 73 150 3.0 3.0 0.00 0.00 0.00 59 1008.9
20260504204216 73 147 1.0 2.0 0.00 0.00 0.00 60 1008.8
20260504203715 73 166 4.0 6.0 0.00 0.00 0.00 58 1008.9
20260504203213 75 177 6.0 8.0 0.00 0.00 0.00 56 1009.1
20260504202712 77 66 9.0 10.0 0.00 0.00 0.00 55 1008.8
20260504202209 76 204 4.0 5.0 0.00 0.00 0.00 56 1008.5
20260504201706 76 235 4.0 7.0 0.00 0.00 0.00 54 1008.5
20260504201204 73 181 4.0 6.0 0.00 0.00 0.00 59 1008.4
20260504200701 75 201 6.0 8.0 0.00 0.00 0.00 57 1008.4
20260504200157 75 114 3.0 5.0 0.00 0.00 0.00 59 1008.5
20260504195654 74 189 4.0 6.0 0.00 0.00 0.00 61 1008.9
20260504195150 74 217 5.0 6.0 0.00 0.00 0.00 59 1008.8
20260504194647 72 203 4.0 5.0 0.00 0.00 0.00 59 1008.9
20260504194143 72 223 2.0 3.0 0.00 0.00 0.00 60 1009.2
20260504193639 73 242 5.0 11.0 0.00 0.00 0.00 58 1009.0
20260504193137 72 211 4.0 6.0 0.00 0.00 0.00 59 1009.2
20260504192635 73 148 2.0 2.0 0.00 0.00 0.00 59 1009.0
20260504192133 74 234 4.0 6.0 0.00 0.00 0.00 58 1009.1
20260504191631 75 277 3.0 5.0 0.00 0.00 0.00 55 1009.4
20260504191127 76 151 4.0 7.0 0.00 0.00 0.00 57 1009.4
20260504190623 75 185 5.0 9.0 0.00 0.00 0.00 56 1009.3
20260504190120 76 232 9.0 11.0 0.00 0.00 0.00 56 1009.3
20260504185616 75 155 6.0 10.0 0.00 0.00 0.00 57 1009.3
20260504185113 74 213 5.0 8.0 0.00 0.00 0.00 59 1009.6
20260504184609 74 200 7.0 9.0 0.00 0.00 0.00 58 1009.5
20260504184104 73 154 3.0 5.0 0.00 0.00 0.00 60 1009.5
20260504183602 74 153 5.0 8.0 0.00 0.00 0.00 58 1009.6
20260504183059 74 115 4.0 7.0 0.00 0.00 0.00 59 1009.7
20260504182556 75 193 3.0 5.0 0.00 0.00 0.00 60 1009.6
20260504182054 74 263 7.0 9.0 0.00 0.00 0.00 58 1009.4
20260504181550 74 199 5.0 6.0 0.00 0.00 0.00 58 1009.7
20260504181048 75 206 4.0 7.0 0.00 0.00 0.00 60 1009.7
20260504180547 74 232 8.0 10.0 0.00 0.00 0.00 60 1009.5
20260504180046 73 210 1.0 2.0 0.00 0.00 0.00 59 1009.6
20260504175543 74 238 8.0 11.0 0.00 0.00 0.00 59 1010.1
20260504175039 73 307 9.0 10.0 0.00 0.00 0.00 60 1009.7
20260504174537 73 231 8.0 10.0 0.00 0.00 0.00 60 1009.7
20260504174034 74 285 6.0 10.0 0.00 0.00 0.00 58 1009.8
20260504173531 73 159 3.0 6.0 0.00 0.00 0.00 61 1010.0
20260504173028 73 162 1.0 2.0 0.00 0.00 0.00 61 1009.8
20260504172524 72 268 5.0 7.0 0.00 0.00 0.00 59 1010.1
20260504172021 72 145 2.0 3.0 0.00 0.00 0.00 57 1009.9
20260504171518 73 159 3.0 3.0 0.00 0.00 0.00 62 1010.0
20260504171015 72 163 8.0 10.0 0.00 0.00 0.00 60 1010.2
20260504170511 72 138 2.0 2.0 0.00 0.00 0.00 61 1010.1
20260504160431 70 144 7.0 9.0 0.00 0.00 0.00 62 1011.4
20260504150854 63 154 6.0 10.0 0.00 0.00 0.00 66 1012.2
20260504150351 63 235 2.0 5.0 0.00 0.00 0.00 66 1012.3
20260504141321 64 239 4.0 6.0 0.00 0.00 0.00 62 1012.2
20260504140818 64 239 4.0 5.0 0.00 0.00 0.00 64 1012.6
20260504140313 64 194 5.0 7.0 0.00 0.00 0.00 62 1012.2
20260504130742 61 213 5.0 7.0 0.00 0.00 0.00 61 1012.2
20260504130238 62 154 2.0 2.0 0.00 0.00 0.00 62 1012.1
20260504120202 57 118 0.0 0.0 0.00 0.00 0.00 68 1012.3
20260504110629 46 120 0.0 1.0 0.00 0.00 0.00 87 1012.1
20260504110125 46 121 0.0 0.0 0.00 0.00 0.00 88 1012.3
20260504100551 46 121 0.0 0.0 0.00 0.00 0.00 86 1012.6
20260504081944 50 141 0.0 0.0 0.00 0.00 0.00 80 1013.2
20260504081442 50 144 0.0 0.0 0.00 0.00 0.00 81 1013.2
20260504080937 50 149 0.0 0.0 0.00 0.00 0.00 83 1013.4
20260504080434 50 149 0.0 0.0 0.00 0.00 0.00 83 1013.5
20260504070402 51 164 0.0 0.0 0.00 0.00 0.00 76 1013.8